Time,TemperatureF,DewpointF,PressureIn,WindDirection,WindDirectionDegrees,WindSpeedMPH,WindSpeedGustMPH,Humidity,HourlyPrecipIn,Conditions,Clouds,dailyrainin,SoftwareType,DateUTC
2013-11-15 00:12:00,52.0,40.0,30.03,SE,140,0.0,7.0,63,0.00,,,0.00,,2013-11-15 06:12:00,
2013-11-15 00:23:00,51.0,39.0,30.04,ESE,114,2.0,5.0,64,0.00,,,0.00,,2013-11-15 06:23:00,
2013-11-15 00:43:00,51.0,40.0,30.04,SSE,160,1.0,7.0,66,0.00,,,0.00,,2013-11-15 06:43:00,
2013-11-15 00:53:00,51.0,40.0,30.03,West,271,0.0,3.0,67,0.00,,,0.00,,2013-11-15 06:53:00,
2013-11-15 01:12:00,51.0,41.0,30.03,SW,228,0.0,4.0,69,0.00,,,0.00,,2013-11-15 07:12:00,
2013-11-15 01:21:00,51.0,42.0,30.03,SSE,153,1.0,4.0,70,0.00,,,0.00,,2013-11-15 07:21:00,
2013-11-15 01:42:00,51.0,42.0,30.02,WSW,247,1.0,5.0,71,0.00,,,0.00,,2013-11-15 07:42:00,
2013-11-15 01:52:00,51.0,42.0,30.02,SSW,211,1.0,4.0,71,0.00,,,0.00,,2013-11-15 07:52:00,
2013-11-15 02:21:00,50.0,42.0,30.02,SW,232,0.0,7.0,74,0.00,,,0.00,,2013-11-15 08:21:00,
2013-11-15 02:42:00,49.0,42.0,30.01,SE,125,0.0,4.0,76,0.00,,,0.00,,2013-11-15 08:42:00,
2013-11-15 02:52:00,49.0,42.0,30.01,SE,136,0.0,3.0,77,0.00,,,0.00,,2013-11-15 08:52:00,
2013-11-15 03:22:00,48.0,42.0,30.01,WSW,257,0.0,2.0,81,0.00,,,0.00,,2013-11-15 09:22:00,
2013-11-15 03:43:00,48.0,43.0,30.01,SSE,150,0.0,3.0,82,0.00,,,0.00,,2013-11-15 09:43:00,
2013-11-15 03:53:00,48.0,43.0,30.00,SE,141,0.0,4.0,83,0.00,,,0.00,,2013-11-15 09:53:00,
2013-11-15 04:22:00,48.0,43.0,29.99,SW,230,0.0,3.0,84,0.00,,,0.00,,2013-11-15 10:22:00,
2013-11-15 04:43:00,48.0,44.0,30.00,SSE,152,0.0,4.0,85,0.00,,,0.00,,2013-11-15 10:43:00,
2013-11-15 04:52:00,47.0,43.0,30.00,South,174,1.0,3.0,86,0.00,,,0.00,,2013-11-15 10:52:00,
2013-11-15 05:12:00,47.0,43.0,30.00,SSE,167,0.0,3.0,87,0.00,,,0.00,,2013-11-15 11:12:00,
2013-11-15 05:22:00,47.0,44.0,30.00,SSE,153,0.0,1.0,88,0.00,,,0.00,,2013-11-15 11:22:00,
2013-11-15 05:42:00,47.0,44.0,30.00,SSE,151,0.0,2.0,88,0.00,,,0.00,,2013-11-15 11:42:00,
2013-11-15 05:52:00,46.0,43.0,30.00,SE,132,0.0,1.0,89,0.00,,,0.00,,2013-11-15 11:52:00,
2013-11-15 06:11:00,46.0,43.0,29.99,SE,140,0.0,2.0,90,0.00,,,0.00,,2013-11-15 12:11:00,
2013-11-15 06:22:00,45.0,43.0,29.99,SSW,201,0.0,3.0,91,0.00,,,0.00,,2013-11-15 12:22:00,
2013-11-15 06:42:00,45.0,43.0,29.99,ESE,113,0.0,2.0,92,0.00,,,0.00,,2013-11-15 12:42:00,
2013-11-15 06:52:00,45.0,43.0,30.00,SE,140,0.0,3.0,92,0.00,,,0.00,,2013-11-15 12:52:00,
2013-11-15 07:11:00,45.0,43.0,30.00,South,169,0.0,1.0,93,0.00,,,0.00,,2013-11-15 13:11:00,
2013-11-15 07:22:00,45.0,43.0,30.00,SSE,167,0.0,3.0,94,0.00,,,0.00,,2013-11-15 13:22:00,
2013-11-15 07:42:00,44.0,42.0,30.00,SW,230,0.0,1.0,94,0.00,,,0.00,,2013-11-15 13:42:00,
2013-11-15 07:52:00,45.0,44.0,30.00,WSW,238,0.0,4.0,95,0.00,,,0.00,,2013-11-15 13:52:00,
2013-11-15 08:11:00,46.0,44.0,29.99,ESE,110,0.0,3.0,94,0.00,,,0.00,,2013-11-15 14:11:00,
2013-11-15 08:22:00,47.0,45.0,29.99,SSE,152,0.0,4.0,94,0.00,,,0.00,,2013-11-15 14:22:00,
2013-11-15 08:42:00,48.0,46.0,29.99,SSE,155,0.0,4.0,93,0.00,,,0.00,,2013-11-15 14:42:00,
2013-11-15 08:52:00,49.0,46.0,30.00,SSW,197,1.0,4.0,91,0.00,,,0.00,,2013-11-15 14:52:00,
2013-11-15 09:12:00,50.0,47.0,30.01,SW,233,1.0,4.0,91,0.00,,,0.00,,2013-11-15 15:12:00,
2013-11-15 09:21:00,50.0,47.0,30.01,SW,217,1.0,6.0,90,0.00,,,0.00,,2013-11-15 15:21:00,
2013-11-15 09:43:00,52.0,49.0,30.02,West,264,1.0,4.0,88,0.00,,,0.00,,2013-11-15 15:43:00,
2013-11-15 09:53:00,53.0,48.0,30.01,SSW,197,2.0,9.0,83,0.00,,,0.00,,2013-11-15 15:53:00,
2013-11-15 10:23:00,56.0,49.0,29.99,SW,218,2.0,6.0,76,0.00,,,0.00,,2013-11-15 16:23:00,
2013-11-15 10:43:00,56.0,47.0,29.98,SW,215,2.0,7.0,72,0.00,,,0.00,,2013-11-15 16:43:00,
2013-11-15 10:53:00,57.0,47.0,29.99,WSW,243,3.0,8.0,70,0.00,,,0.00,,2013-11-15 16:53:00,
2013-11-15 11:22:00,59.0,48.0,29.98,SE,127,2.0,5.0,67,0.00,,,0.00,,2013-11-15 17:22:00,
2013-11-15 11:42:00,60.0,48.0,29.99,SW,225,2.0,8.0,65,0.00,,,0.00,,2013-11-15 17:42:00,
2013-11-15 11:52:00,61.0,48.0,29.98,SW,215,3.0,7.0,62,0.00,,,0.00,,2013-11-15 17:52:00,
2013-11-15 12:12:00,62.0,47.0,29.98,SW,218,2.0,7.0,59,0.00,,,0.00,,2013-11-15 18:12:00,
2013-11-15 12:22:00,63.0,48.0,29.96,SW,231,2.0,6.0,59,0.00,,,0.00,,2013-11-15 18:22:00,
2013-11-15 12:42:00,63.0,48.0,29.95,SSW,210,1.0,8.0,57,0.00,,,0.00,,2013-11-15 18:42:00,
2013-11-15 12:52:00,64.0,48.0,29.95,SSE,163,2.0,6.0,57,0.00,,,0.00,,2013-11-15 18:52:00,
2013-11-15 13:12:00,64.0,47.0,29.93,SSW,197,3.0,8.0,53,0.00,,,0.00,,2013-11-15 19:12:00,
2013-11-15 13:21:00,65.0,47.0,29.93,SW,221,1.0,7.0,53,0.00,,,0.00,,2013-11-15 19:21:00,
2013-11-15 13:42:00,65.0,47.0,29.92,South,191,3.0,7.0,53,0.00,,,0.00,,2013-11-15 19:42:00,
2013-11-15 13:52:00,66.0,48.0,29.91,SW,232,2.0,5.0,53,0.00,,,0.00,,2013-11-15 19:52:00,
2013-11-15 14:01:00,66.0,48.0,29.91,SW,232,2.0,5.0,53,0.00,,,0.00,,2013-11-15 20:01:00,
2013-11-15 14:12:00,66.0,48.0,29.91,SW,232,2.0,5.0,53,0.00,,,0.00,,2013-11-15 20:12:00,
2013-11-15 14:22:00,67.0,47.0,29.90,ESE,120,2.0,6.0,49,0.00,,,0.00,,2013-11-15 20:22:00,
2013-11-15 14:42:00,67.0,47.0,29.89,SE,132,1.0,8.0,49,0.00,,,0.00,,2013-11-15 20:42:00,
2013-11-15 14:52:00,68.0,48.0,29.87,SW,226,1.0,4.0,49,0.00,,,0.00,,2013-11-15 20:52:00,
2013-11-15 15:12:00,68.0,47.0,29.86,SSW,206,1.0,5.0,47,0.00,,,0.00,,2013-11-15 21:12:00,
2013-11-15 15:21:00,68.0,48.0,29.87,SW,228,3.0,7.0,48,0.00,,,0.00,,2013-11-15 21:21:00,
2013-11-15 15:43:00,67.0,47.0,29.86,ESE,110,0.0,7.0,49,0.00,,,0.00,,2013-11-15 21:43:00,
2013-11-15 15:54:00,67.0,47.0,29.86,SW,229,1.0,7.0,49,0.00,,,0.00,,2013-11-15 21:54:00,
2013-11-15 16:14:00,66.0,47.0,29.85,ESE,114,2.0,5.0,51,0.00,,,0.00,,2013-11-15 22:14:00,
2013-11-15 16:24:00,66.0,48.0,29.84,SW,218,1.0,6.0,52,0.00,,,0.00,,2013-11-15 22:24:00,
2013-11-15 16:43:00,65.0,47.0,29.84,SSW,210,0.0,3.0,53,0.00,,,0.00,,2013-11-15 22:43:00,
2013-11-15 16:53:00,66.0,48.0,29.83,East,98,0.0,4.0,53,0.00,,,0.00,,2013-11-15 22:53:00,
2013-11-15 17:22:00,64.0,48.0,29.85,ESE,117,0.0,2.0,57,0.00,,,0.00,,2013-11-15 23:22:00,
2013-11-15 17:43:00,63.0,48.0,29.84,SW,226,1.0,5.0,58,0.00,,,0.00,,2013-11-15 23:43:00,
2013-11-15 17:52:00,62.0,48.0,29.83,ESE,117,1.0,6.0,60,0.00,,,0.00,,2013-11-15 23:52:00,
2013-11-15 18:11:00,61.0,48.0,29.83,SSW,200,1.0,4.0,63,0.00,,,0.00,,2013-11-16 00:11:00,
2013-11-15 18:22:00,61.0,50.0,29.84,NE,34,0.0,2.0,66,0.00,,,0.00,,2013-11-16 00:22:00,
2013-11-15 18:42:00,60.0,49.0,29.85,SSE,158,0.0,3.0,67,0.00,,,0.00,,2013-11-16 00:42:00,
2013-11-15 18:52:00,59.0,48.0,29.84,SE,133,0.0,2.0,68,0.00,,,0.00,,2013-11-16 00:52:00,
2013-11-15 19:12:00,59.0,49.0,29.85,ESE,119,0.0,5.0,69,0.00,,,0.00,,2013-11-16 01:12:00,
2013-11-15 19:21:00,59.0,50.0,29.84,South,186,1.0,7.0,71,0.00,,,0.00,,2013-11-16 01:21:00,
2013-11-15 19:42:00,58.0,50.0,29.85,WSW,245,1.0,7.0,76,0.00,,,0.00,,2013-11-16 01:42:00,
2013-11-15 19:52:00,58.0,52.0,29.84,SW,214,1.0,5.0,80,0.00,,,0.00,,2013-11-16 01:52:00,
2013-11-15 20:11:00,58.0,52.0,29.85,West,259,1.0,8.0,81,0.00,,,0.00,,2013-11-16 02:11:00,
2013-11-15 20:22:00,58.0,53.0,29.85,SSW,198,1.0,5.0,82,0.00,,,0.00,,2013-11-16 02:22:00,
2013-11-15 20:42:00,57.0,52.0,29.85,SE,129,1.0,5.0,83,0.00,,,0.00,,2013-11-16 02:42:00,
2013-11-15 20:52:00,57.0,52.0,29.85,SW,217,1.0,6.0,84,0.00,,,0.00,,2013-11-16 02:52:00,
2013-11-15 21:11:00,58.0,53.0,29.85,SSE,165,1.0,6.0,84,0.00,,,0.00,,2013-11-16 03:11:00,
2013-11-15 21:22:00,58.0,54.0,29.84,ESE,115,1.0,6.0,85,0.00,,,0.00,,2013-11-16 03:22:00,
2013-11-15 21:44:00,57.0,53.0,29.85,ESE,112,1.0,4.0,85,0.00,,,0.00,,2013-11-16 03:44:00,
2013-11-15 21:55:00,57.0,53.0,29.85,SW,221,2.0,6.0,86,0.00,,,0.00,,2013-11-16 03:55:00,
2013-11-15 22:23:00,57.0,53.0,29.85,SSE,165,1.0,5.0,87,0.00,,,0.00,,2013-11-16 04:23:00,
2013-11-15 22:43:00,57.0,53.0,29.85,SE,135,1.0,6.0,87,0.00,,,0.00,,2013-11-16 04:43:00,
2013-11-15 22:53:00,57.0,53.0,29.85,SE,124,0.0,5.0,87,0.00,,,0.00,,2013-11-16 04:53:00,
2013-11-15 23:13:00,57.0,53.0,29.85,SSE,158,1.0,6.0,88,0.00,,,0.00,,2013-11-16 05:13:00,
2013-11-15 23:23:00,57.0,54.0,29.85,SSE,167,1.0,4.0,89,0.00,,,0.00,,2013-11-16 05:23:00,
2013-11-15 23:43:00,57.0,54.0,29.84,SE,143,1.0,5.0,89,0.00,,,0.00,,2013-11-16 05:43:00,
2013-11-15 23:53:00,57.0,54.0,29.85,SE,124,0.0,3.0,90,0.00,,,0.00,,2013-11-16 05:53:00,